Showing default

TOMORROW-S3, 62392

Orbit data source: Space-Track

TOMORROW-S3, 62392 is a payload satellite owned by Tomorrow.io (US) in LEO that was launched on Sat, 21 Dec 2024 UTC via an FALCON 9 launch vehicle from the Air Force Western Test Range (AFWTR). Payload-class satellites include a variety of spacecraft equipped with specific instruments for various scientific and technological missions. These include communications satellites like Starlink; space stations such as the ISS; scientific satellites like the Hubble; Earth observation satellites from companies like Planet Labs, Umbra, and HawkEye 360; GPS; miniature CubeSats for education and research; and military/defense satellites.

Loading next visibility...
Identifier
62392, 2024-247R
Orbit
LEO
Country
Flag of USUS
Related business
Manufacturer
Blue Canyon
Mission
Operational Commercial Weather
Bus & Motor
CUBESAT 6U, Unknown motor
Mass
12 kg wet, 12 kg dry
Launch date (UTC)
2024-12-21 (1 year ago)
Launch vehicle
FALCON 9
Launch site
Air Force Western Test Range (AFWTR)
Object type
Payload
Rocket body
Debris
Shape & HBR
Box + 2 Pan, 1.0 m
Radar Cross Section
0.138 m², Medium (>0.1 m² and < 1m²)

Expand to show TLE details & history
Last TLE update: 1 day ago

TLE from 1 day ago
0 TOMORROW-S3
1 62392U 24247R   26170.58692640  .00004982  00000-0  18341-3 0  9990
2 62392  44.9995 279.9747 0003014 310.5042  49.5579 15.29099361 83322
Epoch: 2026-06-19T14:05Z
TLE epoch observation values (Epoch: 2026-06-19T14:05:10.440Z)
Latitude
-0.00002°
Longitude
160.86741°
Altitude
477.162 km
Speed
7.63 km/s
True Right ascension
18h 39m 53s
True Declination
0° 00' 00"
Sunlit
Object was in full shadow at epoch
Visualization orbit readout
Latitude
Unknown
Longitude
Unknown
Altitude
Unknown
Speed
Unknown
Apparent Right ascension
Unknown
Apparent Declination
Unknown
Sunlit
N/A
Visualization observer readout
Local Sidereal Time
07:19:27
Azimuth
Unknown
Elevation
Unknown
Doppler factor
Unknown
Orbital elements
Apogee altitude
482.181 km
Perigee altitude
478.047 km
Semi-major axis
6,858.251 km
Eccentricity
0.0003
Inclination
44.9995°
RAAN
279.9747°
Arg. of periapsis
310.5042°
True anomaly
49.58419°
Mean anomaly
49.5579°
Eccentric anomaly
49.57105°
Mean motion
3.82141 °/min
Orbital period
94.21 mins
BSTAR
0.00018341
Loading maneuver chart data...
Computing Atmospheric mass density...
Loading historical data...
Loading historical data...
Loading historical data...
Loading historical data...
Loading historical data...
Loading historical data...
Loading historical data...

Documentation

Showing up to 5 results
|